Then saith he unto them, Render therefore unto Caesar the things which are Caesar's; and unto God the things that are God's.
Matthew 22:21 KJ
pause

Enter Zip Code:

Current conditions for: Simi Valley, CA, US - Location: 34.26  -118.75 on Tue, 20 Mar 2007 9:51 pm PDT:
cloud or sun
cloud or sun
cloud or sun

Currently:
Cloudy
Visibility: 1,609.0 miles
Temp: 53° F     Humidity: 86%
Wind: Calm
Feels like: 53 ° F
Pressure: 30.01 in and rising
Sunrise: 6:59 am  Sunset: 7:06 pm
Forecast for Tue:
Showers Early
64° F / 47° F
Forecast for Wed:
Partly Cloudy
67° F / 47° F



Data courtesy of Yahoo! Weather

Enter 4 Letter Airport ID:

Current Observation for KDFW :

2020/08/03 08:53
KDFW 030853Z 00000KT 10SM FEW150 SCT300 26/19 A2997 RMK AO2 SLP138 T02560194 56004 $

Forecast for KDFW :

2020/08/03 09:04
TAF 
      AMD KDFW 030902Z 0309/0412 05003KT P6SM SCT120 
     FM031500 03007KT P6SM FEW040 SCT120 
     FM040900 05007KT P6SM BKN100
GOES Pacific Coast Color Satellite View
GOES Pacific Coast Color Satellite View
GOES Hurricane Color Satellite View
GOES Hurricane Color Satellite View
  Movies and Other Links
(May take a while to load)
East Coast Movie
West Coast Movie
GOES East Full Disk
GOES West Full Disk
S Plains Radar View
Southern Plains Radar View
N Texas Radar View
Dallas Ft Worth Area View
Southern Rockies Radar View
North Texas - Oklahoma Radar View
CONUS Visible
CONUS Visible
CONUS IR
CONUS IR
CONUS Water Vapor
CONUS Water Vapor